| time (UTC) | temp F | wind direction | speed MPH | gust MPH | rain 1hr in | rain 24hr in | rain mn in | humidity % | barometer mb |
| 20260503221003 | 87 | 312 | 2.0 | 4.0 | 0.00 | 0.00 | 0.00 | 26 | |
| 20260503220003 | 87 | 185 | 1.0 | 4.0 | 0.00 | 0.00 | 0.00 | 27 | |
| 20260503215003 | 86 | 68 | 146.0 | 4.0 | 0.00 | 0.00 | 0.00 | 30 | |
| 20260503214003 | 85 | 55 | 1.0 | 4.0 | 0.00 | 0.00 | 0.00 | 34 | |
| 20260503213003 | 85 | 60 | 1.0 | 3.0 | 0.00 | 0.00 | 0.00 | 34 | |
| 20260503212003 | 83 | 42 | 0.0 | 4.0 | 0.00 | 0.00 | 0.00 | 34 | |
| 20260503211002 | 83 | 55 | 1.0 | 3.0 | 0.00 | 0.00 | 0.00 | 37 | |
| 20260503210003 | 82 | 40 | 0.0 | 3.0 | 0.00 | 0.00 | 0.00 | 42 | |
| 20260503205003 | 81 | 60 | 2.0 | 4.0 | 0.00 | 0.00 | 0.00 | 41 | |
| 20260503204003 | 79 | 65 | 146.0 | 3.0 | 0.00 | 0.00 | 0.00 | 40 | |
| 20260503203003 | 79 | 85 | 1.0 | 3.0 | 0.00 | 0.00 | 0.00 | 48 | |
| 20260503202004 | 78 | 103 | 1.0 | 4.0 | 0.00 | 0.00 | 0.00 | 50 | |
| 20260503201002 | 78 | 43 | 146.0 | 2.0 | 0.00 | 0.00 | 0.00 | 50 | |
| 20260503200003 | 77 | 94 | 1.0 | 3.0 | 0.00 | 0.00 | 0.00 | 52 | |
| 20260503195002 | 77 | 37 | 1.0 | 4.0 | 0.00 | 0.00 | 0.00 | 55 | |
| 20260503194003 | 77 | 52 | 1.0 | 3.0 | 0.00 | 0.00 | 0.00 | 52 | |
| 20260503193003 | 76 | 59 | 1.0 | 2.0 | 0.00 | 0.00 | 0.00 | 55 | |
| 20260503192003 | 75 | 37 | 146.0 | 4.0 | 0.00 | 0.00 | 0.00 | 56 | |
| 20260503191003 | 76 | 106 | 146.0 | 146.0 | 0.00 | 0.00 | 0.00 | 48 | |
| 20260503190004 | 75 | 50 | 146.0 | 0.0 | 0.00 | 0.00 | 0.00 | 59 | |
| 20260503185002 | 75 | 76 | 146.0 | 0.0 | 0.00 | 0.00 | 0.00 | 56 | |
| 20260503184003 | 73 | 47 | 146.0 | 146.0 | 0.00 | 0.00 | 0.00 | 59 | |
| 20260503183003 | 73 | 56 | 146.0 | 0.0 | 0.00 | 0.00 | 0.00 | 60 | |
| 20260503182003 | 71 | 51 | 146.0 | 2.0 | 0.00 | 0.00 | 0.00 | 64 | |
| 20260503181003 | 72 | 50 | 1.0 | 3.0 | 0.00 | 0.00 | 0.00 | 60 | |
| 20260503180004 | 71 | 29 | 1.0 | 4.0 | 0.00 | 0.00 | 0.00 | 61 | |
| 20260503175003 | 71 | 84 | 1.0 | 3.0 | 0.00 | 0.00 | 0.00 | 62 | |
| 20260503174003 | 70 | 66 | 2.0 | 4.0 | 0.00 | 0.00 | 0.00 | 65 | |
| 20260503173003 | 69 | 80 | 2.0 | 5.0 | 0.00 | 0.00 | 0.00 | 64 | |
| 20260503172003 | 69 | 62 | 1.0 | 5.0 | 0.00 | 0.00 | 0.00 | 62 | |
| 20260503171003 | 69 | 134 | 1.0 | 4.0 | 0.00 | 0.00 | 0.00 | 62 | |
| 20260503151003 | 59 | 62 | 2.0 | 4.0 | 0.00 | 0.00 | 0.00 | 88 | |
| 20260503131002 | 47 | 175 | 2.0 | 3.0 | 0.00 | 0.00 | 0.00 | 100 | |
| 20260503081002 | 48 | 184 | 1.0 | 3.0 | 0.00 | 0.00 | 0.00 | 99 | |
| 20260503072003 | 49 | 187 | 0.0 | 2.0 | 0.00 | 0.00 | 0.00 | 99 | |
| 20260503071002 | 49 | 177 | 2.0 | 3.0 | 0.00 | 0.00 | 0.00 | 100 | |
| 20260503055003 | 51 | 181 | 0.0 | 2.0 | 0.00 | 0.00 | 0.00 | 100 | |
| 20260503054003 | 51 | 186 | 0.0 | 2.0 | 0.00 | 0.00 | 0.00 | 100 | |
| 20260503053002 | 51 | 176 | 1.0 | 2.0 | 0.00 | 0.00 | 0.00 | 100 | |
| 20260503052003 | 52 | 171 | 1.0 | 2.0 | 0.00 | 0.00 | 0.00 | 100 | |
| 20260503051003 | 52 | 183 | 1.0 | 2.0 | 0.00 | 0.00 | 0.00 | 100 | |
| 20260503050003 | 52 | 187 | 1.0 | 2.0 | 0.00 | 0.00 | 0.00 | 100 | |
| 20260503045003 | 53 | 185 | 1.0 | 2.0 | 0.00 | 0.00 | 0.00 | 100 | |
| 20260503044003 | 53 | 196 | 0.0 | 2.0 | 0.00 | 0.00 | 0.00 | 100 | |
| 20260503043003 | 54 | 211 | 0.0 | 2.0 | 0.00 | 0.00 | 0.00 | 100 | |
| 20260503042002 | 54 | 206 | 0.0 | 3.0 | 0.00 | 0.00 | 0.00 | 100 | |
| 20260503041002 | 54 | 215 | 0.0 | 0.0 | 0.00 | 0.00 | 0.00 | 100 | |
| 20260503040003 | 55 | 210 | 0.0 | 0.0 | 0.00 | 0.00 | 0.00 | 100 | |
| 20260503035003 | 55 | 213 | 0.0 | 0.0 | 0.00 | 0.00 | 0.00 | 100 | |
| 20260503034003 | 55 | 184 | 0.0 | 0.0 | 0.00 | 0.00 | 0.00 | 99 | |
| 20260503033004 | 56 | 191 | 146.0 | 0.0 | 0.00 | 0.00 | 0.00 | 96 | |
| 20260503032003 | 57 | 195 | 0.0 | 4.0 | 0.00 | 0.00 | 0.00 | 95 | |
| 20260503031002 | 57 | 212 | 0.0 | 4.0 | 0.00 | 0.00 | 0.00 | 94 | |
| 20260503030003 | 58 | 189 | 1.0 | 6.0 | 0.00 | 0.00 | 0.00 | 91 | |
| 20260503025002 | 59 | 185 | 1.0 | 3.0 | 0.00 | 0.00 | 0.00 | 91 | |
| 20260503024003 | 59 | 177 | 0.0 | 3.0 | 0.00 | 0.00 | 0.00 | 91 | |
| 20260503023003 | 60 | 163 | 0.0 | 2.0 | 0.00 | 0.00 | 0.00 | 86 | |
| 20260503022004 | 61 | 217 | 0.0 | 2.0 | 0.00 | 0.00 | 0.00 | 87 | |
| 20260503021003 | 61 | 184 | 0.0 | 3.0 | 0.00 | 0.00 | 0.00 | 81 | |
| 20260503020003 | 62 | 268 | 0.0 | 2.0 | 0.00 | 0.00 | 0.00 | 80 | |
| 20260503015002 | 63 | 183 | 0.0 | 2.0 | 0.00 | 0.00 | 0.00 | 80 | |
| 20260503014003 | 65 | 173 | 0.0 | 3.0 | 0.00 | 0.00 | 0.00 | 73 | |
| 20260503013003 | 65 | 194 | 1.0 | 2.0 | 0.00 | 0.00 | 0.00 | 71 | |
| 20260503012003 | 64 | 201 | 0.0 | 4.0 | 0.00 | 0.00 | 0.00 | 73 | |
| 20260503011003 | 65 | 188 | 0.0 | 3.0 | 0.00 | 0.00 | 0.00 | 72 | |
| 20260503010004 | 65 | 227 | 1.0 | 3.0 | 0.00 | 0.00 | 0.00 | 72 | |
| 20260503005002 | 65 | 257 | 0.0 | 8.0 | 0.00 | 0.00 | 0.00 | 72 | |
| 20260503004003 | 63 | 284 | 3.0 | 8.0 | 0.00 | 0.00 | 0.00 | 74 | |
| 20260503003003 | 62 | 287 | 5.0 | 8.0 | 0.00 | 0.00 | 0.00 | 75 | |
| 20260503002003 | 62 | 277 | 4.0 | 9.0 | 0.00 | 0.00 | 0.00 | 75 | |
| 20260503001003 | 62 | 283 | 4.0 | 10.0 | 0.00 | 0.00 | 0.00 | 77 | |
| 20260503000003 | 61 | 283 | 6.0 | 11.0 | 0.00 | 0.00 | 0.00 | 79 | |
| 20260502235002 | 61 | 286 | 6.0 | 11.0 | 0.00 | 0.00 | 0.00 | 78 | |
| 20260502234002 | 61 | 286 | 5.0 | 14.0 | 0.00 | 0.00 | 0.00 | 78 | |
| 20260502233003 | 60 | 290 | 9.0 | 17.0 | 0.00 | 0.00 | 0.00 | 80 | |
| 20260502232004 | 60 | 292 | 8.0 | 14.0 | 0.00 | 0.00 | 0.00 | 81 | |
| 20260502231003 | 60 | 294 | 8.0 | 13.0 | 0.00 | 0.00 | 0.00 | 81 | |
| 20260502230004 | 60 | 298 | 7.0 | 11.0 | 0.00 | 0.00 | 0.00 | 79 | |
| 20260502225002 | 60 | 285 | 6.0 | 13.0 | 0.00 | 0.00 | 0.00 | 80 | |
| 20260502224003 | 60 | 283 | 8.0 | 14.0 | 0.00 | 0.00 | 0.00 | 81 | |
| 20260502223003 | 61 | 280 | 7.0 | 15.0 | 0.00 | 0.00 | 0.00 | 81 | |
| 20260502222003 | 60 | 285 | 7.0 | 13.0 | 0.00 | 0.00 | 0.00 | 79 |